DELTA 1 DEB

Satellite information

Favourite Embed

Satellite Type and Status

DEBRISIN ORBIT

Key statistics

Satellite DELTA 1 DEB at a glance.

Uptime

18431

Days in orbit

Revolutions

≈ 14.3

Per day

Orbit

SSO

Sun Synchronous Orbit

Inclination

97.6

Latest

Satellite identification and parameters

Extended collection of information and parameters for DELTA 1 DEB.

Object identification

Identified? True

Debris? True

Object name: DELTA 1 DEB

International designator: 1975-004HP

Object number (NORAD): 19311

Object ID (CCSDS): 19311

Country: UNITED STATES OF AMERICA (US)

Current information (Y/N): Y

RCS size: SMALL

Orbital parameters

Period: 100.456 minutes

Inclination: 97.6353 deg

SMA: 7158.322 km

Apoapsis: 876.897 km

Periapsis: 683.476 km

RAAN: 176.7208 deg

Eccentricy: 0.0135102

Argument of periapsis: 229.5866 deg

Mean anomaly: 129.3471 deg

Mean motion: 14.33461242 rev/day

Mean motion (dot): 0.00000634 rev/day2

B* drag term: 0.00022013 1/REarth

Two-line elements (TLE)

Creation date: July 8, 2025, 5:26 p.m.

Reference frame: TEME

Reference center: EARTH

Epoch: July 8, 2025, 9:43 a.m. UTC

TLE line 0: 0 DELTA 1 DEB

TLE line 1: 1 19311U 75004HP 25189.40538597 .00000634 00000-0 22013-3 0 9991

TLE line 2: 2 19311 97.6353 176.7208 0135102 229.5866 129.3471 14.33461242938323

Live tracking on map

Real-time ground track for satellite DELTA 1 DEB.

In-orbit conjunctions

A list of the most updated potential collisions computed for object DELTA 1 DEB.

Target Orbit TCA Probability of collision Miss distance Type
CZ-6A DEB LEO 2025-02-28 14:32:09 0.0002738451 881.0 (m) DEBRIS
FENGYUN 1C DEB SSO 2024-08-19 18:00:34 0.0001663307 77.0 (m) DEBRIS

Associated space launch

Earth observation satellite

DELTA 1 DEB was lifted into orbit during the mission ‘Delta 2910 | Landsat 2’, on board a Delta 2910 space rocket.

The launch took place on Jan. 22, 1975, 5:55 p.m. from Space Launch Complex 2W.

For more information about the launch, click the button.

Launch to space Delta 2910 | Landsat 2
Delta 2910 | Landsat 2

Agency: N/A

Status: Launch Successful

Launch date: Jan. 22, 1975, 5:55 p.m. UTC

Rocket: Delta 2910

Launch pad: Space Launch Complex 2W

Location: Vandenberg SFB, CA, USA

...

Latest news about this satellite

There are no fresh news available about this satellite. Check back as we update our databases every day.


Newsletter sign-up

Weekly statistics, charts and insights to help you stay on top of the space industry.